Regional Weather Roundup
Issued by NWS

Home | Current Version | Previous Version | Graphics & Text | Print | Product List | Glossary Off
Versions: 1 2 3 4 5 6 7 8 9 10 11 12 13 14 15 16 17 18 19 20 21 22 23 24 25 26 27 28 29 30 31 32 33 34 35 36 37 38 39 40 41 42 43 44 45 46 47 48 49 50

222
ASUS43 KDMX 120008
RWRIA

WEATHER ROUNDUP FOR IOWA
NATIONAL WEATHER SERVICE DES MOINES IA
600 PM CST THU FEB 11 2016

NOTE: "FAIR" INDICATES FEW OR NO CLOUDS BELOW 12,000 FEET WITH NO
SIGNIFICANT WEATHER AND/OR OBSTRUCTIONS TO VISIBILITY.

* - THESE STATIONS ARE NOT NWS STATIONS...THUS NOT UNDER NWS
QUALITY CONTROL.  THEY ALSO DO NOT REPORT WEATHER SUCH
AS PRECIPITATION OR FOG.

IAZ001>003-012>014-020>022-031>034-043>046-120100-
   NORTHWEST IOWA

CITY           SKY/WX    TMP DP  RH WIND       PRES   REMARKS
CARROLL *      LGT SNOW  14  12  92 SE9       30.22R WCI   2
CHEROKEE *     LGT SNOW  15  13  91 S6        30.22R VSB 1   WCI   7
DENISON *      LGT SNOW  18  16  93 SE6       30.18S WCI   9
LE MARS *      LGT SNOW  18  18 100 SE6       30.21R VSB 3/4 WCI   9
ORANGE CITY *  LGT SNOW  16  16 100 CALM      30.18R
SHELDON *      CLOUDY    14  12  92 S8        30.18R FOG     WCI   3
SIOUX CITY     LGT SNOW  20  13  74 S9        30.20R WCI   9
6HR MIN TEMP:  19; 6HR MAX TEMP:  20; 6HR PCP:  0.02;

SPENCER        LGT SNOW  14   9  80 SE9       30.20R WCI   2
6HR MIN TEMP:  14; 6HR MAX TEMP:  14; 6HR PCP: TRACE;

STORM LAKE *   CLOUDY    14  14 100 SE9       30.20R FOG     WCI   2
$$

IAZ055>058-069>071-079>083-090>094-120100-
   SOUTHWEST IOWA

CITY           SKY/WX    TMP DP  RH WIND       PRES   REMARKS
ATLANTIC *     MIX PCPN  23  16  74 E7        30.20R WCI  15
AUDUBON *      FLURRIES  18  16  93 E6        30.21R WCI   9
CLARINDA *     CLOUDY    30  19  64 SE5       30.22R WCI  25
COUNCIL BLFS * CLOUDY    25  21  86 NE6       30.17S WCI  18
CRESTON *      CLOUDY    23  14  68 E8        30.21S WCI  14
HARLAN  *      CLOUDY    21  16  79 E7        30.22S WCI  13
LAMONI         CLOUDY    26  11  52 E5        30.22R WCI  20
6HR MIN TEMP:  22; 6HR MAX TEMP:  27;

RED OAK *      CLOUDY    30  21  69 SE7       30.20R WCI  23
SHENANDOAH *   MOCLDY    30  21  69 SE7       30.20R WCI  23
$$

IAZ047>049-059>061-072>074-084-120100-
   CENTRAL IOWA

CITY           SKY/WX    TMP DP  RH WIND       PRES   REMARKS
AMES           CLOUDY    17   7  64 SE3       30.25S
6HR MIN TEMP:  11; 6HR MAX TEMP:  18;

ANKENY *       LGT SNOW  18  12  79 S3        30.26R
BOONE *        LGT SNOW  16   9  73 CALM      30.23R
CHARITON *     MIX PCPN  23   9  54 SE5       30.25R WCI  17
DES MOINES     LGT SNOW  19  11  70 E5        30.26R WCI  12
6HR MIN TEMP:  16; 6HR MAX TEMP:  21; 6HR PCP: TRACE;

GRINNELL*      CLOUDY    21  10  63 S6        30.25S WCI  14
KNOXVILLE *    LGT SNOW  21  10  63 SE3       30.24S
MARSHALLTOWN   CLOUDY    18   7  62 CALM      30.25S
6HR MIN TEMP:  12; 6HR MAX TEMP:  18;

NEWTON *       CLOUDY    19   9  63 S6        30.25S WCI  11
PELLA *        CLOUDY    21   7  53 CALM      30.27S
$$

IAZ004>006-015-016-023>025-035-036-120100-
   NORTH CENTRAL IOWA

CITY           SKY/WX    TMP DP  RH WIND       PRES   REMARKS
ALGONA *       CLOUDY    12  10  92 S8        30.22S FOG     WCI   1
CLARION *      CLOUDY    12   7  79 S3        30.24S
ESTHERVILLE    LGT SNOW  12   9  87 S9        30.19S FOG     WCI   0
6HR MIN TEMP:  10; 6HR MAX TEMP:  13; 6HR PCP: TRACE;

FORT DODGE *   CLOUDY    14   7  73 S5        30.25R WCI   6
MASON CITY     CLOUDY    12   4  70 S6        30.24S WCI   3
6HR MIN TEMP:   8; 6HR MAX TEMP:  12;

FOREST CITY *  CLOUDY    12   7  79 S5        30.22F WCI   4
WEBSTER CITY * CLOUDY    14  10  85 CALM      30.23R HAZE
IOWA FALLS *     N/A     16   8  71 CALM      30.25S
$$

IAZ007>011-017>019-026>030-037>042-050>054-066-120100-
   NORTHEAST IOWA

CITY           SKY/WX    TMP DP  RH WIND       PRES   REMARKS
CEDAR RAPIDS   CLOUDY    21   8  57 S6        30.26R WCI  13
6HR MIN TEMP:  17; 6HR MAX TEMP:  22;

CHARLES CITY * CLOUDY    12   1  62 SW6       30.26R WCI   3
CLINTON *      CLOUDY    18   5  57 CALM      30.29R
DECORAH *      CLEAR     12   0  57 CALM      30.24S
DUBUQUE        MOCLDY    16   4  59 N5        30.25R WCI   9
6HR MIN TEMP:  14; 6HR MAX TEMP:  19;

MONTICELLO *   CLOUDY    18   7  62 W3        30.27R
OELWEIN *      PTCLDY    14   3  62 CALM      30.26S
WATERLOO       CLOUDY    15   4  61 CALM      30.26F
6HR MIN TEMP:  13; 6HR MAX TEMP:  18;

$$

IAZ064-065-067-068-078-120100-
   EAST CENTRAL IOWA

CITY           SKY/WX    TMP DP  RH WIND       PRES   REMARKS
DAVENPORT      CLOUDY    21   4  47 W3        30.28S
6HR MIN TEMP:  18; 6HR MAX TEMP:  23;

IOWA CITY      MOCLDY    21   7  54 SE5       30.30S WCI  15
6HR MIN TEMP:  18; 6HR MAX TEMP:  23;

MT. PLEASANT * CLOUDY    27  12  55 S7        30.28S WCI  19
MUSCATINE *    MOCLDY    25   7  46 S5        30.31R WCI  19
QUAD CITIES    CLOUDY    22   5  48 CALM      30.28S
6HR MIN TEMP:  20; 6HR MAX TEMP:  25;

$$

IAZ062-063-075>077-085>089-095>099-120100-
   SOUTHEAST IOWA

CITY           SKY/WX    TMP DP  RH WIND       PRES   REMARKS
BURLINGTON     CLOUDY    23   7  50 CALM      30.29R
6HR MIN TEMP:  19; 6HR MAX TEMP:  24;

FAIRFIELD *    CLOUDY    23   9  54 SE7       30.27S WCI  15
FORT MADISON * CLOUDY    23  10  58 S5        30.29R WCI  17
KEOKUK *       CLOUDY    23  10  58 S5        30.29R WCI  17
OSKALOOSA *    CLOUDY    22  12  63 SE5       30.26F WCI  16
CENTERVILLE *  FLURRIES  23  12  63 SE8       30.25S WCI  14
OTTUMWA        CLOUDY    23  12  62 SE5       30.26S WCI  17
6HR MIN TEMP:  18; 6HR MAX TEMP:  23;

WASHINGTON *   CLOUDY    23   9  54 SE5       30.30R WCI  17
$$

ABBREVIATIONS USED IN REMARKS
   TC - TEMPERATURES IN CELSIUS
  WCI - WIND CHILL INDEX
   HX - HEAT INDEX
  VSB - VISIBILITY
$$





USA.gov is the U.S. government's official web portal to all federal, state and local government web resources and services.